TimeCDT,TemperatureF,Dew PointF,Humidity,Sea Level PressureIn,VisibilityMPH,Wind Direction,Wind SpeedMPH,Gust SpeedMPH,PrecipitationIn,Events,Conditions,WindDirDegrees,DateUTC
12:15 AM,41.0,37.4,87,30.08,10.0,Calm,Calm,-,N/A,,Clear,0,2012-10-09 05:15:00
12:35 AM,41.0,37.4,87,30.08,10.0,Calm,Calm,-,N/A,,Clear,0,2012-10-09 05:35:00
12:55 AM,39.2,37.4,93,30.07,10.0,Calm,Calm,-,N/A,,Clear,0,2012-10-09 05:55:00
1:15 AM,39.2,37.4,93,30.07,10.0,Calm,Calm,-,N/A,,Clear,0,2012-10-09 06:15:00
1:55 AM,41.0,37.4,87,30.07,10.0,Calm,Calm,-,N/A,,Clear,0,2012-10-09 06:55:00
2:15 AM,39.2,37.4,93,30.07,10.0,Calm,Calm,-,N/A,,Clear,0,2012-10-09 07:15:00
2:35 AM,39.2,37.4,93,30.07,10.0,Calm,Calm,-,N/A,,Clear,0,2012-10-09 07:35:00
3:15 AM,41.0,39.2,93,30.06,10.0,Calm,Calm,-,N/A,,Clear,0,2012-10-09 08:15:00
3:35 AM,41.0,39.2,93,30.05,10.0,Calm,Calm,-,N/A,,Clear,0,2012-10-09 08:35:00
3:55 AM,41.0,39.2,93,30.04,10.0,Calm,Calm,-,N/A,,Clear,0,2012-10-09 08:55:00
4:15 AM,41.0,39.2,93,30.04,10.0,Calm,Calm,-,N/A,,Clear,0,2012-10-09 09:15:00
4:35 AM,41.0,39.2,93,30.03,10.0,Calm,Calm,-,N/A,,Clear,0,2012-10-09 09:35:00
4:55 AM,41.0,39.2,93,30.03,10.0,Calm,Calm,-,N/A,,Clear,0,2012-10-09 09:55:00
5:15 AM,41.0,39.2,93,30.03,10.0,Calm,Calm,-,N/A,,Clear,0,2012-10-09 10:15:00
5:35 AM,41.0,39.2,93,30.02,10.0,Calm,Calm,-,N/A,,Clear,0,2012-10-09 10:35:00
5:55 AM,41.0,39.2,93,30.03,10.0,Calm,Calm,-,N/A,,Clear,0,2012-10-09 10:55:00
6:15 AM,41.0,39.2,93,30.03,10.0,Calm,Calm,-,N/A,,Clear,0,2012-10-09 11:15:00
6:35 AM,41.0,39.2,93,30.03,10.0,Calm,Calm,-,N/A,,Clear,0,2012-10-09 11:35:00
6:55 AM,41.0,39.2,93,30.03,10.0,Calm,Calm,-,N/A,,Clear,0,2012-10-09 11:55:00
7:15 AM,41.0,39.2,93,30.03,10.0,SE,4.6,-,N/A,,Clear,130,2012-10-09 12:15:00
7:35 AM,41.0,39.2,93,30.02,10.0,ESE,3.5,-,N/A,,Clear,120,2012-10-09 12:35:00
7:55 AM,42.8,41.0,93,30.02,10.0,SE,4.6,-,N/A,,Clear,130,2012-10-09 12:55:00
8:15 AM,44.6,41.0,87,30.02,10.0,SE,4.6,-,N/A,,Clear,130,2012-10-09 13:15:00
8:35 AM,46.4,42.8,87,30.02,10.0,SE,6.9,-,N/A,,Clear,140,2012-10-09 13:35:00
8:55 AM,50.0,42.8,76,30.02,10.0,SE,5.8,-,N/A,,Clear,130,2012-10-09 13:55:00
9:15 AM,51.8,44.6,76,30.02,10.0,SE,9.2,-,N/A,,Clear,130,2012-10-09 14:15:00
9:35 AM,53.6,44.6,72,30.02,10.0,SSE,9.2,-,N/A,,Clear,150,2012-10-09 14:35:00
9:55 AM,53.6,44.6,72,30.02,10.0,SE,10.4,17.3,N/A,,Clear,140,2012-10-09 14:55:00
10:15 AM,55.4,44.6,67,30.02,10.0,SSE,6.9,16.1,N/A,,Scattered Clouds,150,2012-10-09 15:15:00
10:35 AM,57.2,44.6,63,30.01,10.0,SSE,13.8,21.9,N/A,,Scattered Clouds,160,2012-10-09 15:35:00
10:55 AM,59.0,46.4,63,30.01,10.0,South,13.8,17.3,N/A,,Scattered Clouds,180,2012-10-09 15:55:00
11:15 AM,59.0,46.4,63,30.00,10.0,South,17.3,21.9,N/A,,Mostly Cloudy,180,2012-10-09 16:15:00
11:35 AM,60.8,46.4,59,29.99,10.0,South,10.4,18.4,N/A,,Scattered Clouds,180,2012-10-09 16:35:00
11:55 AM,60.8,46.4,59,29.99,10.0,South,13.8,20.7,N/A,,Scattered Clouds,170,2012-10-09 16:55:00
12:15 PM,62.6,48.2,59,29.98,10.0,SSE,10.4,26.5,N/A,,Clear,160,2012-10-09 17:15:00
12:35 PM,60.8,48.2,63,29.96,10.0,SSE,13.8,23.0,N/A,,Mostly Cloudy,160,2012-10-09 17:35:00
12:55 PM,60.8,50.0,68,29.96,10.0,South,13.8,21.9,N/A,,Overcast,180,2012-10-09 17:55:00
1:15 PM,62.6,50.0,63,29.94,10.0,South,15.0,21.9,N/A,,Overcast,170,2012-10-09 18:15:00
1:35 PM,62.6,50.0,63,29.93,10.0,SSE,12.7,20.7,N/A,,Overcast,160,2012-10-09 18:35:00
1:55 PM,62.6,50.0,63,29.92,10.0,South,11.5,19.6,N/A,,Overcast,170,2012-10-09 18:55:00
2:15 PM,62.6,50.0,63,29.90,10.0,SSE,13.8,18.4,N/A,,Overcast,160,2012-10-09 19:15:00
2:35 PM,62.6,51.8,68,29.90,10.0,SSE,9.2,18.4,N/A,,Overcast,150,2012-10-09 19:35:00
2:55 PM,62.6,51.8,68,29.90,10.0,South,11.5,-,N/A,,Overcast,170,2012-10-09 19:55:00
3:15 PM,62.6,51.8,68,29.91,10.0,South,10.4,-,N/A,,Overcast,180,2012-10-09 20:15:00
3:35 PM,62.6,51.8,68,29.91,10.0,South,6.9,-,N/A,,Overcast,180,2012-10-09 20:35:00
3:55 PM,62.6,51.8,68,29.93,10.0,SSW,3.5,-,N/A,,Overcast,200,2012-10-09 20:55:00
4:15 PM,62.6,51.8,68,29.93,10.0,Calm,Calm,-,N/A,,Overcast,0,2012-10-09 21:15:00
4:35 PM,62.6,51.8,68,29.94,10.0,SW,3.5,-,N/A,,Overcast,220,2012-10-09 21:35:00
4:55 PM,62.6,51.8,68,29.95,10.0,SW,9.2,-,N/A,,Mostly Cloudy,220,2012-10-09 21:55:00
5:15 PM,60.8,53.6,77,29.95,5.0,WSW,6.9,-,N/A,,Haze,240,2012-10-09 22:15:00
5:35 PM,60.8,53.6,77,29.95,10.0,Calm,Calm,-,N/A,,Mostly Cloudy,0,2012-10-09 22:35:00
5:55 PM,60.8,53.6,77,29.95,10.0,Calm,Calm,-,N/A,,Mostly Cloudy,0,2012-10-09 22:55:00
6:15 PM,59.0,53.6,82,29.96,10.0,Calm,Calm,-,N/A,,Overcast,0,2012-10-09 23:15:00
6:35 PM,59.0,53.6,82,29.96,10.0,Calm,Calm,-,N/A,,Overcast,0,2012-10-09 23:35:00
6:55 PM,59.0,53.6,82,29.97,10.0,Calm,Calm,-,N/A,,Overcast,0,2012-10-09 23:55:00
7:15 PM,59.0,53.6,82,29.97,10.0,Calm,Calm,-,0.01,,Overcast,0,2012-10-10 00:15:00
7:35 PM,59.0,53.6,82,29.98,10.0,Calm,Calm,-,0.01,,Overcast,0,2012-10-10 00:35:00
7:55 PM,59.0,53.6,82,29.99,10.0,Calm,Calm,-,0.01,,Overcast,0,2012-10-10 00:55:00
8:15 PM,57.2,53.6,88,30.00,10.0,Calm,Calm,-,N/A,,Overcast,0,2012-10-10 01:15:00
8:35 PM,57.2,53.6,88,30.01,10.0,Calm,Calm,-,N/A,,Overcast,0,2012-10-10 01:35:00
8:55 PM,55.4,53.6,94,30.02,10.0,Calm,Calm,-,N/A,,Overcast,0,2012-10-10 01:55:00
9:15 PM,55.4,53.6,94,30.03,10.0,Calm,Calm,-,N/A,,Overcast,0,2012-10-10 02:15:00
9:35 PM,53.6,53.6,100,30.03,10.0,Calm,Calm,-,N/A,,Mostly Cloudy,0,2012-10-10 02:35:00
9:55 PM,53.6,51.8,94,30.04,5.0,Calm,Calm,-,N/A,,Scattered Clouds,0,2012-10-10 02:55:00
10:15 PM,51.8,50.0,94,30.04,1.0,Calm,Calm,-,N/A,,Mist,0,2012-10-10 03:15:00
10:35 PM,50.0,50.0,100,30.06,1.0,Calm,Calm,-,N/A,,Mist,0,2012-10-10 03:35:00
10:55 PM,50.0,50.0,100,30.07,1.8,Calm,Calm,-,N/A,,Mist,0,2012-10-10 03:55:00
11:15 PM,50.0,50.0,100,30.07,3.0,Calm,Calm,-,N/A,,Mostly Cloudy,0,2012-10-10 04:15:00
11:35 PM,50.0,50.0,100,30.09,5.0,Calm,Calm,-,N/A,,Overcast,0,2012-10-10 04:35:00
11:55 PM,51.8,51.8,100,30.09,7.0,Calm,Calm,-,N/A,,Overcast,0,2012-10-10 04:55:00